Time,TemperatureF,DewpointF,PressureIn,WindDirection,WindDirectionDegrees,WindSpeedMPH,WindSpeedGustMPH,Humidity,HourlyPrecipIn,Conditions,Clouds,dailyrainin,SolarRadiationWatts/m^2,SoftwareType,DateUTC
2013-11-09 00:01:00,74.8,71.0,30.05,East,82,1.0,6.0,89,0.00,,,0.12,0,weatherlink.com 1.10,2013-11-09 05:01:00,
2013-11-09 00:16:00,73.8,71.0,30.04,NE,42,0.0,3.0,92,0.00,,,0.00,0,weatherlink.com 1.10,2013-11-09 05:16:00,
2013-11-09 00:31:00,73.5,71.0,30.04,ENE,78,0.0,7.0,93,0.00,,,0.00,0,weatherlink.com 1.10,2013-11-09 05:31:00,
2013-11-09 00:46:00,73.3,71.0,30.04,ENE,76,0.0,4.0,93,0.00,,,0.00,0,weatherlink.com 1.10,2013-11-09 05:46:00,
2013-11-09 01:01:00,73.3,71.0,30.05,NE,40,0.0,2.0,93,0.00,,,0.00,0,weatherlink.com 1.10,2013-11-09 06:01:00,
2013-11-09 01:16:00,73.5,71.0,30.04,NNE,33,1.0,3.0,93,0.01,,,0.01,0,weatherlink.com 1.10,2013-11-09 06:16:00,
2013-11-09 01:31:00,73.7,71.0,30.04,NE,48,1.0,5.0,92,0.01,,,0.01,0,weatherlink.com 1.10,2013-11-09 06:31:00,
2013-11-09 01:46:00,73.9,71.0,30.03,NE,55,2.0,4.0,91,0.01,,,0.01,0,weatherlink.com 1.10,2013-11-09 06:46:00,
2013-11-09 02:01:00,74.2,71.0,30.04,ENE,65,0.0,4.0,90,0.00,,,0.01,0,weatherlink.com 1.10,2013-11-09 07:01:00,
2013-11-09 02:16:00,74.2,71.0,30.03,East,92,0.0,8.0,90,0.00,,,0.01,0,weatherlink.com 1.10,2013-11-09 07:16:00,
2013-11-09 02:31:00,74.6,71.0,30.03,ENE,67,4.0,9.0,89,0.00,,,0.01,0,weatherlink.com 1.10,2013-11-09 07:31:00,
2013-11-09 02:46:00,74.9,71.0,30.02,NNE,23,0.0,11.0,88,0.00,,,0.01,0,weatherlink.com 1.10,2013-11-09 07:46:00,
2013-11-09 03:01:00,75.1,71.0,30.03,North,350,1.0,10.0,88,0.00,,,0.01,0,weatherlink.com 1.10,2013-11-09 08:01:00,
2013-11-09 03:16:00,74.6,71.0,30.03,NNW,346,5.0,8.0,89,0.00,,,0.01,0,weatherlink.com 1.10,2013-11-09 08:16:00,
2013-11-09 03:31:00,74.2,71.0,30.03,NNE,30,0.0,8.0,90,0.00,,,0.01,0,weatherlink.com 1.10,2013-11-09 08:31:00,
2013-11-09 03:46:00,74.2,71.0,30.03,East,90,1.0,7.0,90,0.00,,,0.01,0,weatherlink.com 1.10,2013-11-09 08:46:00,
2013-11-09 04:01:00,73.6,71.0,30.03,NE,49,1.0,6.0,92,0.00,,,0.01,0,weatherlink.com 1.10,2013-11-09 09:01:00,
2013-11-09 04:16:00,73.5,71.0,30.03,East,93,1.0,5.0,92,0.00,,,0.01,0,weatherlink.com 1.10,2013-11-09 09:16:00,
2013-11-09 04:31:00,73.5,71.0,30.04,ENE,69,2.0,4.0,93,0.01,,,0.02,0,weatherlink.com 1.10,2013-11-09 09:31:00,
2013-11-09 04:46:00,73.2,71.0,30.04,NNE,32,3.0,8.0,93,0.01,,,0.02,0,weatherlink.com 1.10,2013-11-09 09:46:00,
2013-11-09 05:01:00,73.2,71.0,30.04,NE,36,2.0,5.0,93,0.01,,,0.02,0,weatherlink.com 1.10,2013-11-09 10:01:00,
2013-11-09 05:16:00,73.4,71.0,30.04,NNW,328,1.0,5.0,93,0.01,,,0.02,0,weatherlink.com 1.10,2013-11-09 10:16:00,
2013-11-09 05:31:00,73.5,71.0,30.05,NE,46,0.0,6.0,93,0.00,,,0.02,0,weatherlink.com 1.10,2013-11-09 10:31:00,
2013-11-09 05:46:00,73.4,71.0,30.06,ENE,76,0.0,4.0,93,0.00,,,0.02,0,weatherlink.com 1.10,2013-11-09 10:46:00,
2013-11-09 06:01:00,73.3,71.0,30.06,NNE,13,0.0,4.0,93,0.00,,,0.02,0,weatherlink.com 1.10,2013-11-09 11:01:00,
2013-11-09 06:16:00,73.5,71.0,30.06,NE,46,0.0,8.0,92,0.00,,,0.02,0,weatherlink.com 1.10,2013-11-09 11:16:00,
2013-11-09 06:32:00,73.6,71.0,30.07,North,355,0.0,5.0,92,0.01,,,0.03,0,weatherlink.com 1.10,2013-11-09 11:32:00,
2013-11-09 06:47:00,73.1,71.0,30.07,NE,40,0.0,7.0,93,0.01,,,0.03,0,weatherlink.com 1.10,2013-11-09 11:47:00,
2013-11-09 07:02:00,73.0,71.0,30.08,NNE,24,1.0,8.0,92,0.01,,,0.03,12,weatherlink.com 1.10,2013-11-09 12:02:00,
2013-11-09 07:17:00,73.2,71.0,30.08,ENE,65,0.0,8.0,93,0.01,,,0.03,18,weatherlink.com 1.10,2013-11-09 12:17:00,
2013-11-09 07:32:00,73.5,71.0,30.09,ENE,57,1.0,5.0,92,0.00,,,0.03,12,weatherlink.com 1.10,2013-11-09 12:32:00,
2013-11-09 07:47:00,74.3,71.0,30.09,NE,53,1.0,4.0,90,0.00,,,0.03,28,weatherlink.com 1.10,2013-11-09 12:47:00,
2013-11-09 08:02:00,74.3,71.0,30.10,NNE,29,0.0,7.0,90,0.00,,,0.03,53,weatherlink.com 1.10,2013-11-09 13:02:00,
2013-11-09 08:17:00,74.5,71.0,30.10,East,94,0.0,4.0,89,0.00,,,0.03,72,weatherlink.com 1.10,2013-11-09 13:17:00,
2013-11-09 08:32:00,75.0,71.0,30.10,ESE,119,0.0,6.0,88,0.00,,,0.03,32,weatherlink.com 1.10,2013-11-09 13:32:00,
2013-11-09 08:47:00,75.6,72.0,30.11,NNW,338,1.0,3.0,88,0.00,,,0.03,97,weatherlink.com 1.10,2013-11-09 13:47:00,
2013-11-09 09:02:00,76.2,72.0,30.11,East,95,2.0,9.0,86,0.00,,,0.03,137,weatherlink.com 1.10,2013-11-09 14:02:00,
2013-11-09 09:17:00,77.1,72.0,30.12,ESE,118,2.0,8.0,84,0.00,,,0.03,155,weatherlink.com 1.10,2013-11-09 14:17:00,
2013-11-09 09:32:00,77.6,72.0,30.12,ENE,78,0.0,8.0,83,0.01,,,0.04,144,weatherlink.com 1.10,2013-11-09 14:32:00,
2013-11-09 09:47:00,77.3,71.0,30.12,ENE,73,0.0,7.0,81,0.01,,,0.04,93,weatherlink.com 1.10,2013-11-09 14:47:00,
2013-11-09 10:02:00,78.0,72.0,30.12,East,82,0.0,8.0,81,0.01,,,0.04,265,weatherlink.com 1.10,2013-11-09 15:02:00,
2013-11-09 10:17:00,78.7,72.0,30.12,NNE,20,1.0,8.0,81,0.01,,,0.04,213,weatherlink.com 1.10,2013-11-09 15:17:00,
2013-11-09 10:32:00,78.2,71.0,30.12,East,81,1.0,10.0,79,0.00,,,0.04,120,weatherlink.com 1.10,2013-11-09 15:32:00,
2013-11-09 10:47:00,77.9,72.0,30.11,ENE,70,3.0,9.0,81,0.00,,,0.04,158,weatherlink.com 1.10,2013-11-09 15:47:00,
2013-11-09 11:02:00,77.8,72.0,30.11,East,95,1.0,10.0,81,0.00,,,0.04,207,weatherlink.com 1.10,2013-11-09 16:02:00,
2013-11-09 11:17:00,78.0,71.0,30.11,ENE,59,1.0,9.0,80,0.00,,,0.04,172,weatherlink.com 1.10,2013-11-09 16:17:00,
2013-11-09 11:32:00,78.1,72.0,30.10,SSW,193,2.0,9.0,80,0.00,,,0.04,163,weatherlink.com 1.10,2013-11-09 16:32:00,
2013-11-09 11:47:00,77.7,71.0,30.10,NW,323,4.0,15.0,81,0.00,,,0.04,183,weatherlink.com 1.10,2013-11-09 16:47:00,
2013-11-09 12:02:00,78.0,71.0,30.10,North,355,7.0,9.0,80,0.00,,,0.04,169,weatherlink.com 1.10,2013-11-09 17:02:00,
2013-11-09 12:17:00,77.4,72.0,30.10,NE,47,1.0,7.0,83,0.00,,,0.04,105,weatherlink.com 1.10,2013-11-09 17:17:00,
2013-11-09 12:32:00,76.6,72.0,30.09,NE,54,2.0,9.0,84,0.00,,,0.04,100,weatherlink.com 1.10,2013-11-09 17:32:00,
2013-11-09 12:47:00,77.2,71.0,30.08,ENE,70,3.0,8.0,82,0.00,,,0.04,158,weatherlink.com 1.10,2013-11-09 17:47:00,
2013-11-09 13:02:00,77.5,71.0,30.08,NE,53,2.0,11.0,80,0.00,,,0.04,111,weatherlink.com 1.10,2013-11-09 18:02:00,
2013-11-09 13:17:00,77.5,71.0,30.08,NNE,14,3.0,8.0,80,0.00,,,0.04,81,weatherlink.com 1.10,2013-11-09 18:17:00,
2013-11-09 13:32:00,75.9,72.0,30.08,NE,40,1.0,7.0,86,0.00,,,0.04,153,weatherlink.com 1.10,2013-11-09 18:32:00,
2013-11-09 13:47:00,75.5,72.0,30.08,NE,40,1.0,4.0,88,0.00,,,0.04,153,weatherlink.com 1.10,2013-11-09 18:47:00,
2013-11-09 14:02:00,76.5,71.0,30.07,North,9,2.0,9.0,84,0.00,,,0.04,77,weatherlink.com 1.10,2013-11-09 19:02:00,
2013-11-09 14:17:00,76.8,72.0,30.07,NNE,29,1.0,10.0,84,0.00,,,0.04,139,weatherlink.com 1.10,2013-11-09 19:17:00,
2013-11-09 14:32:00,77.5,72.0,30.07,SE,126,1.0,6.0,82,0.00,,,0.04,162,weatherlink.com 1.10,2013-11-09 19:32:00,
2013-11-09 14:47:00,76.8,71.0,30.07,South,182,1.0,6.0,82,0.00,,,0.04,86,weatherlink.com 1.10,2013-11-09 19:47:00,
2013-11-09 15:03:00,76.7,71.0,30.07,North,360,1.0,7.0,82,0.00,,,0.04,95,weatherlink.com 1.10,2013-11-09 20:03:00,
2013-11-09 15:17:00,76.7,71.0,30.07,NNE,33,2.0,8.0,81,0.00,,,0.04,58,weatherlink.com 1.10,2013-11-09 20:17:00,
2013-11-09 15:32:00,76.6,70.0,30.07,ENE,76,3.0,6.0,81,0.00,,,0.04,67,weatherlink.com 1.10,2013-11-09 20:32:00,
2013-11-09 15:47:00,76.6,70.0,30.07,NE,42,0.0,7.0,81,0.00,,,0.04,33,weatherlink.com 1.10,2013-11-09 20:47:00,
2013-11-09 16:02:00,76.7,71.0,30.07,NE,40,2.0,5.0,81,0.00,,,0.04,44,weatherlink.com 1.10,2013-11-09 21:02:00,
2013-11-09 16:17:00,76.5,71.0,30.08,North,355,0.0,3.0,83,0.00,,,0.04,25,weatherlink.com 1.10,2013-11-09 21:17:00,
2013-11-09 16:32:00,76.6,70.0,30.07,NE,35,2.0,9.0,81,0.00,,,0.04,28,weatherlink.com 1.10,2013-11-09 21:32:00,
2013-11-09 16:47:00,76.7,70.0,30.08,East,97,0.0,9.0,80,0.00,,,0.04,14,weatherlink.com 1.10,2013-11-09 21:47:00,
2013-11-09 17:02:00,76.7,70.0,30.08,East,80,1.0,6.0,80,0.00,,,0.04,7,weatherlink.com 1.10,2013-11-09 22:02:00,
2013-11-09 17:17:00,76.6,70.0,30.08,NE,53,2.0,7.0,81,0.00,,,0.04,0,weatherlink.com 1.10,2013-11-09 22:17:00,
2013-11-09 17:32:00,76.4,71.0,30.09,NE,50,4.0,6.0,82,0.00,,,0.04,0,weatherlink.com 1.10,2013-11-09 22:32:00,
2013-11-09 17:47:00,75.8,70.0,30.09,ENE,65,2.0,8.0,83,0.00,,,0.04,0,weatherlink.com 1.10,2013-11-09 22:47:00,
2013-11-09 18:02:00,75.8,70.0,30.09,East,82,6.0,7.0,82,0.00,,,0.04,0,weatherlink.com 1.10,2013-11-09 23:02:00,
2013-11-09 18:17:00,75.7,70.0,30.09,NNE,28,0.0,5.0,83,0.00,,,0.04,0,weatherlink.com 1.10,2013-11-09 23:17:00,
2013-11-09 18:32:00,75.4,70.0,30.10,NNE,18,3.0,4.0,84,0.00,,,0.04,0,weatherlink.com 1.10,2013-11-09 23:32:00,
2013-11-09 18:47:00,75.2,71.0,30.10,ENE,60,1.0,6.0,85,0.00,,,0.04,0,weatherlink.com 1.10,2013-11-09 23:47:00,
2013-11-09 19:02:00,75.0,71.0,30.10,ENE,57,0.0,4.0,86,0.00,,,0.04,0,weatherlink.com 1.10,2013-11-10 00:02:00,
2013-11-09 19:17:00,74.8,71.0,30.11,North,5,0.0,3.0,87,0.00,,,0.04,0,weatherlink.com 1.10,2013-11-10 00:17:00,
2013-11-09 19:32:00,74.9,70.0,30.11,ESE,111,1.0,4.0,85,0.00,,,0.04,0,weatherlink.com 1.10,2013-11-10 00:32:00,
2013-11-09 19:47:00,75.2,70.0,30.11,ESE,117,1.0,5.0,84,0.00,,,0.04,0,weatherlink.com 1.10,2013-11-10 00:47:00,
2013-11-09 20:02:00,74.9,70.0,30.12,WNW,296,2.0,5.0,85,0.00,,,0.04,0,weatherlink.com 1.10,2013-11-10 01:02:00,
2013-11-09 20:17:00,74.9,70.0,30.11,ENE,72,0.0,4.0,85,0.00,,,0.04,0,weatherlink.com 1.10,2013-11-10 01:17:00,
2013-11-09 20:32:00,74.9,70.0,30.12,East,87,1.0,8.0,85,0.00,,,0.04,0,weatherlink.com 1.10,2013-11-10 01:32:00,
2013-11-09 20:47:00,75.4,70.0,30.12,ENE,71,3.0,7.0,83,0.00,,,0.04,0,weatherlink.com 1.10,2013-11-10 01:47:00,
2013-11-09 21:02:00,75.5,70.0,30.12,ENE,61,1.0,6.0,83,0.00,,,0.04,0,weatherlink.com 1.10,2013-11-10 02:02:00,
2013-11-09 21:17:00,75.4,70.0,30.12,NE,42,0.0,7.0,84,0.00,,,0.04,0,weatherlink.com 1.10,2013-11-10 02:17:00,
2013-11-09 21:32:00,75.6,71.0,30.12,NE,53,0.0,4.0,84,0.00,,,0.04,0,weatherlink.com 1.10,2013-11-10 02:32:00,
2013-11-09 21:47:00,76.0,71.0,30.12,ESE,107,2.0,5.0,83,0.00,,,0.04,0,weatherlink.com 1.10,2013-11-10 02:47:00,
2013-11-09 22:02:00,76.2,70.0,30.12,NE,36,2.0,3.0,82,0.00,,,0.04,0,weatherlink.com 1.10,2013-11-10 03:02:00,
2013-11-09 22:17:00,76.4,71.0,30.12,ENE,65,1.0,6.0,82,0.00,,,0.04,0,weatherlink.com 1.10,2013-11-10 03:17:00,
2013-11-09 22:32:00,76.4,71.0,30.11,ENE,73,2.0,6.0,82,0.00,,,0.04,0,weatherlink.com 1.10,2013-11-10 03:32:00,
2013-11-09 22:47:00,76.4,71.0,30.12,NNE,25,0.0,5.0,82,0.00,,,0.04,0,weatherlink.com 1.10,2013-11-10 03:47:00,
2013-11-09 23:02:00,76.6,70.0,30.11,NNE,25,0.0,5.0,81,0.00,,,0.04,0,weatherlink.com 1.10,2013-11-10 04:02:00,
2013-11-09 23:17:00,76.6,70.0,30.11,ENE,74,0.0,6.0,81,0.00,,,0.04,0,weatherlink.com 1.10,2013-11-10 04:17:00,
2013-11-09 23:32:00,76.5,71.0,30.11,NE,56,1.0,4.0,82,0.00,,,0.04,0,weatherlink.com 1.10,2013-11-10 04:32:00,
2013-11-09 23:47:00,76.5,71.0,30.11,NNE,28,0.0,7.0,82,0.00,,,0.04,0,weatherlink.com 1.10,2013-11-10 04:47:00,